Location: Dammartin
(48.9032°N, 1.6195°E)
Time: 10:50:50
(UTC+00:00)

CZ-4 R/B - Pass Details

Date: 03 February 2023
Orbit: 526 x 586 km, 97.7° (Epoch: 29 March)

Event Time Altitude Azimuth Distance (km) Brightness Sun altitude
Rises 19:36:30 0° 190° (S) 2,800 5.0 -26.9°
Reaches altitude 10° 19:38:51 10° 200° (SSW) 1,898 4.2 -27.3°
Maximum altitude 19:42:32 31° 264° (W) 1,021 3.2 -27.9°
Drops below altitude 10° 19:46:12 10° 328° (NNW) 1,884 4.5 -28.5°
Sets 19:48:32 0° 338° (NNW) 2,776 5.3 -28.8°
